sat.trackr.live / text

‹ back to catalog

STARLINK-3126

NORAD 49444 · 2021-104AN

PAYLOAD ACTIVE UNKNOWN

§ Identity

Operator
Country
US
Launch date
2021-11-13
Launch site
AFETR
Launch vehicle
Mass (kg)
RCS (m²)

Purposes: comms

External: N2YO · Heavens-Above · Gunter

§ Orbital elements

Epoch: 2026-09-12T21:48:21.980736Z

Period
94.01 min
Inclination
53.1600°
Eccentricity
0.0001183
Mean motion
15.31678437 rev/d
Perigee alt
470.0 km
Apogee alt
471.6 km
Semi-major
6,848.9 km
B*
-9.8256e-5
RAAN
84.2042°
Arg perigee
110.9838°
Mean anomaly
249.1290°
Rev number
26,723

§ Raw data

STARLINK-31261 49444U 21104AN  26255.90858774 -.00003411  00000+0 -98256-4 0  99952 49444  53.1600  84.2042 0001183 110.9838 249.1290 15.31678437267237

JSON: /api/v1/satellites/49444 · /tle

For live sub-satellite position, see the globe view (requires WebGL).

§ Visibility from observer

Set your observer location to see the next 7 days of passes ≥ 10°. The values pass through the URL so the page stays shareable.

No JS? Fill the form by hand. The geolocation button needs JavaScript.